DELTA 1 DEB, 42654

Orbit data source: Space-Track

DELTA 1 DEB, 42654 is space debris in SSO originally from a launch on Thu, 12 Jun 1975 UTC launched from the Air Force Western Test Range (AFWTR). Debris objects in space refer to the collection of defunct objects orbiting the Earth. Examples of debris include non-operational satellites, rocket bodies, and fragments generated from explosions, collisions, or faulty payload assembly.

Loading next visibility...
Identifier
42654, 1975-052MP
Orbit
SSO
Country
Flag of USUS
Related business
Manufacturer
Unknown
Mission
Spacecraft
Bus & Motor
Unknown
Mass
Unknown
Launch date (UTC)
1975-06-12 (51 years ago)
Launch vehicle
Unknown
Launch site
Air Force Western Test Range (AFWTR)
Object type
Payload
Rocket body
Debris
Shape & HBR
Unknown shape, 0.1 m
Radar Cross Section
Small (<0.1 m²)

Expand to show TLE details & history
Last TLE update: 1 month ago

TLE from 1 month ago
0 DELTA 1 DEB
1 42654U 75052MP  26127.56606993 -.00000020  00000-0  58711-4 0  9991
2 42654  99.7449  63.3705 0273939 258.3904 285.9341 12.91906257 20795
Epoch: 2026-05-07T13:35Z
TLE epoch observation values (Epoch: 2026-05-07T13:35:08.441Z)
Latitude
-1.3773°
Longitude
173.93957°
Altitude
1,244.538 km
Speed
7.257 km/s
True Right ascension
16h 12m 32s
True Declination
-1° 22' 11"
Sunlit
Object was in full shadow at epoch
Visualization orbit readout
Latitude
Unknown
Longitude
Unknown
Altitude
Unknown
Speed
Unknown
Apparent Right ascension
Unknown
Apparent Declination
Unknown
Sunlit
N/A
Visualization observer readout
Local Sidereal Time
21:40:35
Azimuth
Unknown
Elevation
Unknown
Doppler factor
Unknown
Orbital elements
Apogee altitude
1,501.443 km
Perigee altitude
1,081.249 km
Semi-major axis
7,669.483 km
Eccentricity
0.02739
Inclination
99.7449°
RAAN
63.3705°
Arg. of periapsis
258.3904°
True anomaly
282.8884°
Mean anomaly
285.9341°
Eccentric anomaly
284.41395°
Mean motion
3.23142 °/min
Orbital period
111.41 mins
BSTAR
0.000058711
Loading maneuver chart data...
Computing Atmospheric mass density...
Loading historical data...
Loading historical data...
Loading historical data...
Loading historical data...
Loading historical data...
Loading historical data...
Loading historical data...

Documentation

Showing up to 5 results
|